Tracking 32571 objects as of 17-Dec-2025
HD Live streaming from Space Station
objects crossing your sky now

AAC-HSI-SAT1

Track AAC-HSI-SAT1 now!
10-day predictions


NORAD ID: 56225
Int'l Code: 2023-054AZ
Perigee: 530.7 km
Apogee: 546.3 km
Inclination: 97.4 °
Period: 95.3 minutes
Semi major axis: 6909 km
RCS: Unknown
Launch date: April 15, 2023
Source: United Kingdom (UK)
Launch site: AIR FORCE WESTERN TEST RANGE (AFWTR)
Your satellite tracking list
Your tracking list is empty




NASA's NSSDC Master Catalog

Two Line Element Set (TLE):
1 56225U 23054AZ  25350.91822112  .00001721  00000-0  10496-3 0  9999
2 56225  97.3930 228.3649 0011287  41.8832 318.3260 15.11577249147829
Source of the keplerian elements: AFSPC